N1LTP Weather Reports


Display with metric or nautical units.
time (UTC)temp
F
wind
direction
speed
MPH
gust
MPH
rain 1hr
in
rain 24hr
in
rain mn
in
humidity
%
barometer
mb
20260506044515 57 110 1.0 5.0 0.00 0.07 0.00 82 1011.2
20260506043008 57 80 1.0 5.0 0.00 0.07 0.00 81 1011.2
20260506041505 58 159 1.0 4.0 0.00 0.07 0.00 80 1011.2
20260506040003 58 110 2.0 6.0 0.00 0.07 0.00 79 1011.1
20260506034501 58 138 1.0 5.0 0.00 0.07 0.07 78 1011.0
20260506033001 58 57 1.0 4.0 0.00 0.07 0.07 78 1011.0
20260506031604 58 127 2.0 5.0 0.00 0.07 0.07 77 1010.9
20260506030116 58 155 1.0 5.0 0.00 0.07 0.07 76 1011.0
20260506024600 58 159 1.0 5.0 0.00 0.07 0.07 76 1010.9
20260506023059 58 233 1.0 9.0 0.00 0.07 0.07 75 1010.9
20260506021603 58 224 1.0 4.0 0.00 0.07 0.07 75 1010.9
20260506020058 59 134 1.0 6.0 0.00 0.07 0.07 75 1010.9
20260506014607 59 224 1.0 5.0 0.00 0.07 0.07 75 1010.8
20260506013056 59 110 1.0 4.0 0.00 0.07 0.07 75 1010.7
20260506011556 59 154 1.0 9.0 0.00 0.07 0.07 75 1010.6
20260506010104 58 129 1.0 4.0 0.00 0.07 0.07 76 1010.5
20260506004555 58 154 2.0 7.0 0.00 0.07 0.07 76 1010.5
20260506003054 58 123 0.0 3.0 0.00 0.07 0.07 76 1010.3
20260506001558 59 146 1.0 6.0 0.00 0.07 0.07 75 1010.0
20260506000058 59 238 1.0 5.0 0.00 0.07 0.07 74 1009.6
20260505234552 60 115 0.0 4.0 0.00 0.07 0.07 73 1009.7
20260505233103 60 148 1.0 6.0 0.00 0.07 0.07 73 1009.2
20260505231552 60 124 1.0 4.0 0.00 0.07 0.07 72 1009.0
20260505230052 61 61 2.0 8.0 0.00 0.07 0.07 72 1008.6
20260505224650 61 175 0.0 4.0 0.00 0.07 0.07 72 1008.6
20260505223051 62 184 0.0 5.0 0.00 0.07 0.07 70 1008.6
20260505220048 64 11 2.0 5.0 0.00 0.07 0.07 67 1008.5
20260505214547 65 158 3.0 6.0 0.00 0.07 0.07 65 1008.3
20260505213048 66 163 1.0 8.0 0.00 0.07 0.07 64 1008.2
20260505211547 67 163 2.0 6.0 0.00 0.07 0.07 63 1008.2
20260505210045 67 213 1.0 10.0 0.00 0.07 0.07 62 1007.9
20260505204544 68 138 1.0 6.0 0.00 0.07 0.07 61 1008.1
20260505203049 69 144 2.0 11.0 0.00 0.07 0.07 59 1008.2
20260505201546 70 167 3.0 6.0 0.00 0.07 0.07 58 1008.2
20260505200041 70 163 2.0 9.0 0.00 0.07 0.07 57 1008.1
20260505194547 71 130 2.0 10.0 0.00 1.23 0.07 56 1008.2
20260505193100 72 242 2.0 9.0 0.00 1.23 0.07 56 1008.4
20260505191541 72 161 2.0 7.0 0.00 1.23 0.07 55 1008.2
20260505190041 73 171 3.0 8.0 0.00 1.23 0.07 55 1008.3
20260505184537 74 160 2.0 11.0 0.00 2.06 0.07 52 1008.3
20260505183035 74 117 2.0 8.0 0.00 2.06 0.07 53 1008.3
20260505181534 75 159 3.0 8.0 0.00 2.06 0.07 51 1008.6
20260505180037 75 149 4.0 8.0 0.00 2.06 0.07 52 1008.7
20260505174528 74 336 3.0 5.0 0.00 2.06 0.07 53 1008.9
20260505173026 74 292 2.0 10.0 0.00 2.06 0.07 55 1009.2
20260505171525 73 143 2.0 7.0 0.00 2.06 0.07 57 1009.1
20260505170024 72 121 2.0 5.0 0.00 2.06 0.07 58 1009.2
20260505164523 72 182 4.0 9.0 0.00 2.06 0.07 57 1009.5
20260505163019 74 271 1.0 7.0 0.00 2.06 0.07 59 1009.7
20260505161519 73 95 1.0 8.0 0.00 2.06 0.07 59 1009.7
20260505153018 72 209 1.0 5.0 0.00 2.06 0.07 60 1009.6
20260505151512 72 247 1.0 5.0 0.00 2.06 0.07 60 1009.6
20260505124536 59 131 1.0 5.0 0.00 1.99 0.00 79 1010.6
20260505123044 58 153 1.0 6.0 0.00 1.99 0.00 81 1010.7
20260505121529 56 321 1.0 5.0 0.00 1.99 0.00 83 1010.5
20260505120035 55 308 1.0 4.0 0.00 1.99 0.00 86 1010.4
20260505114519 53 155 0.0 5.0 0.00 1.99 0.00 90 1010.6
20260505113015 52 81 0.0 3.0 0.00 1.99 0.00 94 1010.5
20260505111523 50 93 0.0 2.0 0.00 1.99 0.00 96 1010.3
20260505101505 45 48 0.0 0.0 0.00 1.99 0.00 94 1010.2
20260505100004 45 48 0.0 0.0 0.00 1.99 0.00 93 1010.2
20260505094501 45 48 0.0 1.0 0.00 1.99 0.00 93 1010.2
20260505093101 45 48 0.0 0.0 0.00 1.99 0.00 93 1010.2
20260505091621 45 48 0.0 1.0 0.00 1.99 0.00 92 1010.3
20260505090122 45 48 0.0 0.0 0.00 1.99 0.00 93 1010.4
20260505084613 46 48 0.0 1.0 0.00 1.99 0.00 93 1010.4
20260505083107 46 47 0.0 0.0 0.00 1.99 0.00 92 1010.5
20260505081601 46 47 0.0 0.0 0.00 1.99 0.00 92 1010.5
20260505074550 46 47 0.0 0.0 0.00 1.99 0.00 92 1010.5
20260505073054 47 47 0.0 1.0 0.00 1.99 0.00 91 1010.6
20260505071558 47 47 0.0 0.0 0.00 1.99 0.00 91 1010.7
20260505070051 47 47 0.0 0.0 0.00 1.99 0.00 90 1010.6
20260505064544 48 47 0.0 2.0 0.00 1.99 0.00 90 1010.6
20260505063050 48 47 0.0 2.0 0.00 1.99 0.00 89 1010.8
20260505061541 48 46 0.0 1.0 0.00 1.99 0.00 88 1010.8
20260505060055 48 46 0.0 2.0 0.00 1.99 0.00 88 1010.8